Location: Wawayanda State Park
(41.1833°N, 74.4333°W)
Time: 04:16:35
(UTC-04:00)

RESURS DK-1 - Visible Passes

Search period start: 02 May 2016 00:00
Search period end: 12 May 2016 00:00
Orbit: 555 x 566 km, 69.9° (Epoch: 02 May)

Date Brightness Start Highest point End Pass type
(mag) Time Alt. Az. Time Alt. Az. Time Alt. Az.
02 May 5.0 00:05:10 10° N 00:06:49 17° NNE 00:06:49 17° NNE visible
02 May 5.3 01:42:33 10° NW 01:42:43 11° NW 01:42:43 11° NW visible
03 May 4.8 00:03:44 10° N 00:05:33 19° NNE 00:05:33 19° NNE visible
04 May 4.6 00:02:23 10° N 00:04:20 23° NNE 00:04:20 23° NNE visible
05 May 4.5 00:01:06 10° NNW 00:03:09 25° N 00:03:09 25° N visible
05 May 4.3 23:59:53 10° NNW 00:01:59 28° N 00:01:59 28° N visible
06 May 4.3 23:58:44 10° NNW 00:00:50 29° NNW 00:00:50 29° NNW visible
07 May 4.7 22:21:19 10° NNE 22:23:13 13° NE 22:23:48 12° ENE visible
07 May 4.2 23:57:37 10° NNW 23:59:43 28° NW 23:59:43 28° NW visible
08 May 4.4 22:19:34 10° NNE 22:22:15 16° NE 22:22:42 16° ENE visible
08 May 4.3 23:56:35 10° NW 23:58:38 26° NW 23:58:38 26° NW visible
09 May 4.1 22:18:02 10° N 22:21:15 21° NE 22:21:39 21° ENE visible
09 May 4.4 23:55:37 10° NW 23:57:35 23° WNW 23:57:35 23° WNW visible
10 May 3.7 22:16:38 10° N 22:20:14 27° ENE 22:20:37 27° ENE visible
10 May 4.6 23:54:45 10° NW 23:56:33 20° WNW 23:56:33 20° WNW visible
11 May 3.2 22:15:18 10° N 22:19:10 36° ENE 22:19:37 35° ENE visible
11 May 4.8 23:54:02 10° WNW 23:55:33 16° WNW 23:55:33 16° WNW visible
